Find Starlink 34258

NORAD ID: 64211 Int'l Des: 2025-117 Owner: SPXS Country: US Constellation: starlink operational
LEOCIRCULAR

当前视图

正在加载3D地球...

About Starlink 34258

Starlink 34258 (NORAD 64211) is a starlink constellation satellite (v2 mini) launched May 31, 2025 by SPXS of US. It operates in LEO, CIRCULAR orbit with a mass of 575.00 kg.

即将过境

Passes for default location (London). Set your location on the main map for personalized predictions.

高度历史

Loading altitude history...

两行轨道根数

1 64211U 25117J 26262.48386720 .00014783 00000-0 44774-3 0 9998
2 64211 53.1572 216.1035 0001954 82.6467 277.4757 15.34403177 74240
Epoch: Sep 19, 2026 • Age: 26 hours

当前状态

高度 481.8 km
远地点 / 近地点 N/A
速度 7.62 km/s
星下点 -51.56°S, 104.77°W
发射日期 May 31, 2025
运行时间 1.3 years
类型 internet

技术详情

分类 Payload
质量 575.00 kg
干质量 530.00 kg
长度 0.30 m
跨度 29.00 m
形状 ? Box + pan
制造商 SPXS
平台类型 Starlink V2MO
阶段状态 In Orbit
所有者/国家 SPXS/US

Most Searched